Other Surface Observations
Issued by NWS Charleston, SC

Home | Current Version | Previous Version | Text Only | Print | Product List | Glossary On
Versions: 1 2 3 4 5 6 7 8 9 10 11 12 13 14 15 16 17 18 19 20 21 22 23 24 25 26 27 28 29 30 31 32 33 34 35 36 37 38 39 40 41 42 43 44 45 46 47 48 49 50
000
SXUS52 KCHS 161827
OSOCHS

MARINE OBSERVATIONS
NATIONAL WEATHER SERVICE CHARLESTON SC
100 PM EST MON JAN 16 2017

...DOWNTOWN CHARLESTON AND HARBOR...

CITY           SKY/WX    TMP DP  RH WIND       PRES   REMARKS
WATERFRONT PRK   N/A     59  59 100 N6        30.34F

...LAKE MOULTRIE...

CITY           SKY/WX    TMP DP  RH WIND       PRES   REMARKS
PINOPOLIS      NOT AVBL

...LAKE AND SUPPLEMENTAL COASTAL OBSERVATIONS...

STATION/POSITION TIME  TEMP    WIND        PRES    WAVE   SWELL
                       AIR SEA DIR/SP/G            HT/PER HT/PER/DIR
                 (UTC) (F)     (DEG/KT/KT) (MB)    (FT/S) (FT/S/D)
FORT PULASKI     1800   59 56   70/  9/ 15 1026.9
SAPELO ISLAND    1800   72      50/  6     1026.0
WINYAH BAY       1730   52      50/  8     1029.0S
LAKE MURRAY      1820   56      30/  3/  4 1026.4
ACE BASIN NERRS  1745   63        CALM     1028.0S


...C-MAN AND BUOY OBSERVATIONS...

STATION/POSITION TIME  TEMP    WIND        PRES    WAVE   SWELL
                       AIR SEA DIR/SP/G            HT/PER HT/PER/DIR
                 (UTC) (F)     (DEG/KT/KT) (MB)    (FT/S) (FT/S/D)
BUOY 41004       1750   67 71   30/  8/ 16 1026.2F   4/10   3/100/10
BUOY 41008       1750   61 61   30/  8/ 10 1025.8F   2/12   2/120/12
FOLLY BEACH CMAN 1800   56      40/  7/  8 1027.6F
CAPERS NS BUOY   1808   53 54   40/ 14/ 17 1026.8F
FRIPP NS BUOY    1808   57 56   60/ 10/ 14 1026.5F
5E ST. MARYS GA  1800      62                N/A     2/12   2/100/12


STATION/POSITION TIME  TEMP    WIND        PRES    WAVE   SWELL
                       AIR SEA DIR/SP/G            HT/PER HT/PER/DIR
                 (UTC) (F)     (DEG/KT/KT) (MB)    (FT/S) (FT/S/D)
FRYING PAN BUOY  1810   65 71   40/ 16/ 17 1026.8
BUOY 41025       1750   55 74   10/ 17/ 21 1028.3F   4/ 6   2/ 90/ 9
CAPE LOOKOUT NC  1800   51      30/ 12/ 13 1028.2F
BUOY 41002       1750   69 72  120/  6/  8 1026.2F   4/ 9   3/ 50/ 9
BUOY 41010       NOT AVBL
ST AUGUSTINE FL  1800   67 64   50/  5/  5 1026.2F

$$




USA.gov is the U.S. government's official web portal to all federal, state and local government web resources and services.